DW9711 Weather Reports


Display with metric or nautical units.
time (UTC)temp
F
wind
direction
speed
MPH
gust
MPH
rain 1hr
in
rain 24hr
in
rain mn
in
humidity
%
barometer
mb
20260901145600 87 235 1.0 6.0 0.00 0.00 0.00 70 1016.9
20260901145058 87 228 1.0 5.0 0.00 0.00 0.00 72 1016.9
20260901144556 86 228 1.0 6.0 0.00 0.00 0.00 70 1017.0
20260901144055 86 228 2.0 6.0 0.00 0.00 0.00 72 1017.0
20260901143554 86 258 0.0 4.0 0.00 0.00 0.00 73 1017.0
20260901143053 85 210 1.0 5.0 0.00 0.00 0.00 73 1017.0
20260901142551 85 205 2.0 5.0 0.00 0.00 0.00 73 1017.0
20260901142050 85 179 0.0 6.0 0.00 0.00 0.00 74 1017.0
20260901141549 84 179 1.0 7.0 0.00 0.00 0.00 74 1017.0
20260901141049 84 200 2.0 7.0 0.00 0.00 0.00 75 1017.0
20260901140546 84 216 1.0 5.0 0.00 0.00 0.00 75 1017.0
20260901140056 83 180 1.0 4.0 0.00 0.00 0.00 76 1017.0
20260901135544 83 181 1.0 6.0 0.00 0.00 0.00 76 1017.0
20260901135042 83 182 1.0 6.0 0.00 0.00 0.00 77 1017.0
20260901134555 83 200 1.0 5.0 0.00 0.00 0.00 77 1016.9
20260901134039 82 215 1.0 5.0 0.00 0.00 0.00 77 1017.0
20260901133538 82 204 1.0 5.0 0.00 0.00 0.00 78 1017.0
20260901133043 82 180 1.0 5.0 0.00 0.00 0.00 78 1017.0
20260901132536 81 180 1.0 5.0 0.00 0.00 0.00 79 1017.1
20260901132038 81 180 0.0 3.0 0.00 0.00 0.00 79 1017.1
20260901131538 81 225 0.0 3.0 0.00 0.00 0.00 80 1017.1
20260901131037 80 165 0.0 0.0 0.00 0.00 0.00 80 1017.1
20260901130533 80 165 0.0 0.0 0.00 0.00 0.00 81 1017.0
20260901130038 79 165 0.0 0.0 0.00 0.00 0.00 82 1017.0
20260901125529 79 165 0.0 1.0 0.00 0.00 0.00 82 1017.0
20260901125028 79 165 0.0 0.0 0.00 0.00 0.00 82 1017.0
20260901124527 78 165 0.0 0.0 0.00 0.00 0.00 83 1017.0
20260901124025 78 165 0.0 0.0 0.00 0.00 0.00 83 1016.9
20260901123527 78 165 0.0 2.0 0.00 0.00 0.00 84 1016.8
20260901123025 77 165 0.0 2.0 0.00 0.00 0.00 84 1016.8
20260901122524 77 164 0.0 2.0 0.00 0.00 0.00 85 1016.8
20260901122024 77 163 0.0 0.0 0.00 0.00 0.00 85 1016.8
20260901121522 77 163 0.0 0.0 0.00 0.00 0.00 85 1016.6
20260901121021 77 163 0.0 1.0 0.00 0.00 0.00 85 1016.6
20260901120521 77 163 0.0 1.0 0.00 0.00 0.00 85 1016.6
20260901120032 76 163 0.0 0.0 0.00 0.00 0.00 85 1016.6
20260901115519 76 164 0.0 0.0 0.00 0.00 0.00 85 1016.5
20260901115021 76 164 0.0 0.0 0.00 0.00 0.00 85 1016.4
20260901114519 76 164 0.0 0.0 0.00 0.00 0.00 86 1016.4
20260901114016 76 164 0.0 0.0 0.00 0.00 0.00 85 1016.3
20260901113516 76 164 0.0 0.0 0.00 0.00 0.00 86 1016.3
20260901113015 76 164 0.0 0.0 0.00 0.00 0.00 85 1016.2
20260901112514 76 164 0.0 0.0 0.00 0.00 0.00 86 1016.2
20260901112015 76 164 0.0 0.0 0.00 0.00 0.00 86 1016.1
20260901111513 76 164 0.0 0.0 0.00 0.00 0.00 86 1016.0
20260901111013 76 164 0.0 0.0 0.00 0.00 0.00 86 1016.0
20260901110516 76 164 0.0 0.0 0.00 0.00 0.00 86 1016.0
20260901110012 76 164 0.0 0.0 0.00 0.00 0.00 85 1015.9
20260901105511 76 164 0.0 0.0 0.00 0.00 0.00 85 1015.9
20260901105012 76 164 0.0 0.0 0.00 0.00 0.00 86 1015.7
20260901104511 76 164 0.0 0.0 0.00 0.00 0.00 86 1015.7
20260901104012 76 164 0.0 0.0 0.00 0.00 0.00 85 1015.7
20260901103511 77 164 0.0 0.0 0.00 0.00 0.00 85 1015.7
20260901103007 77 164 0.0 0.0 0.00 0.00 0.00 85 1015.6
20260901102510 77 164 0.0 0.0 0.00 0.00 0.00 85 1015.5
20260901102007 77 164 0.0 0.0 0.00 0.00 0.00 84 1015.5
20260901101507 77 164 0.0 0.0 0.00 0.00 0.00 84 1015.5
20260901101007 77 164 0.0 0.0 0.00 0.00 0.00 84 1015.5
20260901100507 77 164 0.0 0.0 0.00 0.00 0.00 85 1015.5
20260901100006 77 164 0.0 0.0 0.00 0.00 0.00 85 1015.5
20260901095506 77 164 0.0 0.0 0.00 0.00 0.00 85 1015.5
20260901095005 77 164 0.0 0.0 0.00 0.00 0.00 85 1015.5
20260901094506 77 164 0.0 0.0 0.00 0.00 0.00 85 1015.5
20260901094006 77 164 0.0 0.0 0.00 0.00 0.00 85 1015.5
20260901093507 77 164 0.0 0.0 0.00 0.00 0.00 85 1015.5
20260901093005 77 164 0.0 0.0 0.00 0.00 0.00 85 1015.5
20260901092504 77 164 0.0 0.0 0.00 0.00 0.00 85 1015.4
20260901092004 77 164 0.0 0.0 0.00 0.00 0.00 85 1015.4
20260901091504 77 164 0.0 0.0 0.00 0.00 0.00 85 1015.4
20260901091004 77 164 0.0 0.0 0.00 0.00 0.00 85 1015.4
20260901090502 77 164 0.0 0.0 0.00 0.00 0.00 85 1015.2
20260901090005 77 164 0.0 0.0 0.00 0.00 0.00 85 1015.2
20260901085503 77 164 0.0 0.0 0.00 0.00 0.00 85 1015.1
20260901085002 77 164 0.0 0.0 0.00 0.00 0.00 85 1015.2
20260901084502 77 164 0.0 0.0 0.00 0.00 0.00 85 1015.1
20260901084002 77 164 0.0 0.0 0.00 0.00 0.00 85 1015.1
20260901083601 77 164 0.0 0.0 0.00 0.00 0.00 85 1015.1
20260901083101 77 164 0.0 0.0 0.00 0.00 0.00 85 1015.1
20260901082600 77 164 0.0 0.0 0.00 0.00 0.00 85 1015.1
20260901082104 77 164 0.0 0.0 0.00 0.00 0.00 85 1015.1
20260901081601 77 164 0.0 0.0 0.00 0.00 0.00 85 1015.1
20260901081059 77 164 0.0 2.0 0.00 0.00 0.00 85 1015.1
20260901080559 77 164 0.0 2.0 0.00 0.00 0.00 85 1015.1
20260901080104 77 163 0.0 0.0 0.00 0.00 0.00 86 1015.1
20260901075559 77 163 0.0 0.0 0.00 0.00 0.00 86 1015.1
20260901075057 77 163 0.0 0.0 0.00 0.00 0.00 85 1015.1
20260901074559 77 164 0.0 0.0 0.00 0.00 0.00 85 1015.1
20260901074100 77 163 0.0 0.0 0.00 0.00 0.00 85 1015.0
20260901073556 77 163 0.0 0.0 0.00 0.00 0.00 85 1014.9
20260901073057 77 163 0.0 0.0 0.00 0.00 0.00 85 1015.0
20260901072556 77 163 0.0 0.0 0.00 0.00 0.00 84 1014.9
20260901072058 77 163 0.0 0.0 0.00 0.00 0.00 84 1014.9
20260901071555 77 163 0.0 0.0 0.00 0.00 0.00 85 1015.0
20260901071054 77 163 0.0 0.0 0.00 0.00 0.00 85 1014.9
20260901070554 77 163 0.0 0.0 0.00 0.00 0.00 84 1015.0
20260901070053 78 163 0.0 0.0 0.00 0.00 0.00 84 1015.0
20260901065553 78 163 0.0 0.0 0.00 0.00 0.00 83 1015.0
20260901065053 78 163 0.0 0.0 0.00 0.00 0.00 83 1014.9
20260901064552 78 163 0.0 0.0 0.00 0.00 0.00 83 1015.0
20260901064053 78 163 0.0 0.0 0.00 0.00 0.00 83 1015.0
20260901063552 78 163 0.0 0.0 0.00 0.00 0.00 83 1015.0
20260901063051 78 163 0.0 0.0 0.00 0.00 0.00 83 1015.0
20260901062551 78 163 0.0 0.0 0.00 0.00 0.00 83 1015.0
20260901062050 78 163 0.0 0.0 0.00 0.00 0.00 83 1015.0
20260901061550 78 163 0.0 0.0 0.00 0.00 0.00 84 1015.0
20260901061050 78 163 0.0 0.0 0.00 0.00 0.00 84 1015.0
20260901060551 78 163 0.0 0.0 0.00 0.00 0.00 84 1015.0
20260901060049 78 163 0.0 0.0 0.00 0.00 0.00 83 1015.0
20260901055549 78 163 0.0 0.0 0.00 0.00 0.00 83 1015.1
20260901055048 78 163 0.0 0.0 0.00 0.00 0.00 83 1015.1
20260901054547 78 163 0.0 0.0 0.00 0.00 0.00 83 1015.1
20260901054047 79 163 0.0 0.0 0.00 0.00 0.00 83 1015.1
20260901053550 79 163 0.0 0.0 0.00 0.00 0.00 83 1015.1
20260901053114 79 163 0.0 0.0 0.00 0.00 0.00 83 1015.1
20260901052546 79 163 0.0 0.0 0.00 0.00 0.00 83 1015.1
20260901052045 79 163 0.0 0.0 0.00 0.00 0.00 83 1015.1
20260901051602 78 163 0.0 0.0 0.00 0.00 0.00 83 1015.2
20260901051045 79 163 0.0 0.0 0.00 0.00 0.00 83 1015.2
20260901050545 79 163 0.0 0.0 0.00 0.00 0.00 83 1015.2
20260901050044 79 163 0.0 0.0 0.00 0.00 0.00 82 1015.1
20260901045545 79 163 0.0 0.0 0.00 0.00 0.00 82 1015.1
20260901045043 79 163 0.0 0.0 0.00 0.00 0.00 82 1015.2
20260901044554 79 163 0.0 0.0 0.00 0.00 0.00 82 1015.2
20260901044043 79 163 0.0 0.0 0.00 0.00 0.00 82 1015.2
20260901043543 79 163 0.0 0.0 0.00 0.00 0.00 82 1015.2
20260901043043 79 163 0.0 0.0 0.00 0.00 0.00 82 1015.2
20260901042542 79 163 0.0 0.0 0.00 0.00 0.00 82 1015.1
20260901042044 79 163 0.0 0.0 0.00 0.00 0.00 83 1015.2
20260901041542 79 163 0.0 0.0 0.00 0.00 0.00 83 1015.1
20260901041042 79 163 0.0 0.0 0.00 0.00 0.00 83 1015.2
20260901040542 79 163 0.0 0.0 0.00 0.00 0.00 83 1015.2
20260901040104 79 163 0.0 0.0 0.00 0.00 0.00 83 1015.3
20260901035544 79 163 0.0 0.0 0.00 0.00 0.00 83 1015.2
20260901035041 79 163 0.0 0.0 0.00 0.00 0.00 83 1015.3
20260901034557 79 163 0.0 0.0 0.00 0.00 0.00 83 1015.3
20260901034041 79 163 0.0 0.0 0.00 0.00 0.00 83 1015.3
20260901033541 79 163 0.0 0.0 0.00 0.00 0.00 83 1015.3
20260901033041 79 163 0.0 0.0 0.00 0.00 0.00 83 1015.2
20260901032542 80 163 0.0 0.0 0.00 0.00 0.00 83 1015.2
20260901032044 80 163 0.0 0.0 0.00 0.00 0.00 82 1015.2
20260901031541 79 163 0.0 0.0 0.00 0.00 0.00 81 1015.2
20260901031041 80 163 0.0 0.0 0.00 0.00 0.00 81 1015.3
20260901030540 80 163 0.0 0.0 0.00 0.00 0.00 80 1015.3
20260901030040 80 163 0.0 0.0 0.00 0.00 0.00 80 1015.2
20260901025542 80 163 0.0 0.0 0.00 0.00 0.00 79 1015.2
20260901025040 80 163 0.0 0.0 0.00 0.00 0.00 79 1015.2
20260901024550 80 163 0.0 0.0 0.00 0.00 0.00 79 1015.1
20260901024040 80 163 0.0 0.0 0.00 0.00 0.00 79 1015.0
20260901023539 80 163 0.0 0.0 0.00 0.00 0.00 79 1015.0
20260901023056 80 163 0.0 0.0 0.00 0.00 0.00 78 1015.0
20260901022539 81 163 0.0 0.0 0.00 0.00 0.00 79 1015.0
20260901022039 81 163 0.0 0.0 0.00 0.00 0.00 79 1014.9
20260901021539 81 163 0.0 0.0 0.00 0.00 0.00 78 1014.8
20260901021039 81 163 0.0 0.0 0.00 0.00 0.00 78 1014.7
20260901020540 81 163 0.0 0.0 0.00 0.00 0.00 78 1014.7
20260901020043 81 164 0.0 0.0 0.00 0.00 0.00 77 1014.6
20260901015538 82 163 0.0 0.0 0.00 0.00 0.00 77 1014.6
20260901015038 82 163 0.0 0.0 0.00 0.00 0.00 77 1014.5
20260901014550 82 163 0.0 0.0 0.00 0.00 0.00 77 1014.4
20260901014038 82 163 0.0 0.0 0.00 0.00 0.00 76 1014.4
20260901013538 82 163 0.0 0.0 0.00 0.00 0.00 76 1014.3
20260901013038 83 163 0.0 0.0 0.00 0.00 0.00 75 1014.3
20260901012540 83 163 0.0 0.0 0.00 0.00 0.00 74 1014.2
20260901012037 83 163 0.0 0.0 0.00 0.00 0.00 73 1014.1
20260901011537 83 164 0.0 0.0 0.00 0.00 0.00 73 1014.1
20260901011037 84 163 0.0 0.0 0.00 0.00 0.00 72 1014.0
20260901010537 84 163 0.0 0.0 0.00 0.00 0.00 72 1014.0
20260901010037 84 163 0.0 0.0 0.00 0.00 0.00 72 1013.9
20260901005537 85 163 0.0 0.0 0.00 0.00 0.00 72 1013.9
20260901005037 85 163 0.0 0.0 0.00 0.00 0.00 71 1013.9
20260901004537 85 163 0.0 0.0 0.00 0.00 0.00 71 1013.8
20260901004037 86 163 0.0 0.0 0.00 0.00 0.00 70 1013.9
20260901003536 86 163 0.0 0.0 0.00 0.00 0.00 69 1013.9
20260901003037 87 163 0.0 0.0 0.00 0.00 0.00 68 1013.9
20260901002539 87 163 0.0 0.0 0.00 0.00 0.00 67 1013.9
20260901002038 88 163 0.0 0.0 0.00 0.00 0.00 67 1013.9
20260901001536 88 163 0.0 0.0 0.00 0.00 0.00 66 1013.9
20260901001035 89 163 0.0 0.0 0.00 0.00 0.00 65 1013.9
20260901000534 89 163 0.0 0.0 0.00 0.00 0.00 65 1013.9
20260901000034 89 163 0.0 0.0 0.00 0.00 0.00 64 1014.0
20260831235534 90 163 0.0 0.0 0.00 0.00 0.00 64 1014.0
20260831235034 90 163 0.0 0.0 0.00 0.00 0.00 63 1014.0
20260831234534 90 163 0.0 0.0 0.00 0.00 0.00 62 1014.0
20260831234035 90 163 0.0 0.0 0.00 0.00 0.00 61 1014.0
20260831233533 91 163 0.0 1.0 0.00 0.00 0.00 60 1014.0
20260831233032 91 163 0.0 1.0 0.00 0.00 0.00 59 1014.1
20260831232533 91 163 0.0 3.0 0.00 0.00 0.00 58 1014.2
20260831232031 91 163 0.0 3.0 0.00 0.00 0.00 57 1014.2
20260831231531 91 163 1.0 3.0 0.00 0.00 0.00 57 1014.3
20260831231031 92 163 1.0 3.0 0.00 0.00 0.00 56 1014.3
20260831230530 92 163 1.0 3.0 0.00 0.00 0.00 56 1014.3
20260831230029 93 163 1.0 3.0 0.00 0.00 0.00 56 1014.4
20260831225529 93 163 1.0 2.0 0.00 0.00 0.00 56 1014.5
20260831225029 93 163 0.0 2.0 0.00 0.00 0.00 54 1014.5
20260831224528 93 163 0.0 4.0 0.00 0.00 0.00 56 1014.5
20260831224027 93 165 1.0 4.0 0.00 0.00 0.00 55 1014.5
20260831223530 94 157 1.0 4.0 0.00 0.00 0.00 55 1014.6
20260831223028 94 157 1.0 4.0 0.00 0.00 0.00 54 1014.6
20260831222527 94 71 0.0 4.0 0.00 0.00 0.00 54 1014.6
20260831222026 94 153 0.0 3.0 0.00 0.00 0.00 52 1014.6
20260831221526 94 159 1.0 3.0 0.00 0.00 0.00 54 1014.6
20260831221030 94 170 0.0 3.0 0.00 0.00 0.00 55 1014.7
20260831220526 95 171 0.0 3.0 0.00 0.00 0.00 53 1014.7
20260831220027 95 171 0.0 3.0 0.00 0.00 0.00 55 1014.8
20260831215527 94 171 1.0 5.0 0.00 0.00 0.00 53 1014.8
20260831215026 94 171 2.0 5.0 0.00 0.00 0.00 52 1014.8
20260831214526 94 184 1.0 4.0 0.00 0.00 0.00 55 1014.8
20260831214026 94 216 1.0 5.0 0.00 0.00 0.00 53 1014.8
20260831213525 94 216 2.0 6.0 0.00 0.00 0.00 53 1014.7
20260831213025 93 185 1.0 4.0 0.00 0.00 0.00 54 1014.8
20260831212525 93 187 0.0 3.0 0.00 0.00 0.00 56 1014.8
20260831212026 93 187 1.0 5.0 0.00 0.00 0.00 55 1014.8
20260831211529 92 188 2.0 5.0 0.00 0.00 0.00 55 1014.9
20260831211026 93 138 1.0 3.0 0.00 0.00 0.00 54 1014.9
20260831210524 93 121 0.0 4.0 0.00 0.00 0.00 54 1015.0
20260831210024 94 122 0.0 3.0 0.00 0.00 0.00 54 1015.0
20260831205527 94 187 0.0 5.0 0.00 0.00 0.00 54 1015.0
20260831205026 94 184 0.0 3.0 0.00 0.00 0.00 54 1015.1
20260831204522 94 186 1.0 3.0 0.00 0.00 0.00 54 1015.1
20260831204023 94 186 0.0 2.0 0.00 0.00 0.00 50 1015.1
20260831203521 95 186 0.0 6.0 0.00 0.00 0.00 52 1015.1
20260831203024 94 186 2.0 6.0 0.00 0.00 0.00 52 1015.1
20260831202520 94 174 1.0 4.0 0.00 0.00 0.00 54 1015.2
20260831202020 94 115 1.0 4.0 0.00 0.00 0.00 53 1015.2
20260831201520 94 178 1.0 4.0 0.00 0.00 0.00 53 1015.3
20260831201019 94 177 0.0 5.0 0.00 0.00 0.00 52 1015.3
20260831200519 94 177 1.0 5.0 0.00 0.00 0.00 51 1015.4
20260831200036 94 175 1.0 3.0 0.00 0.00 0.00 53 1015.5
20260831195518 94 178 0.0 3.0 0.00 0.00 0.00 54 1015.5
20260831195021 94 178 0.0 4.0 0.00 0.00 0.00 53 1015.6
20260831194517 94 180 0.0 6.0 0.00 0.00 0.00 52 1015.6
20260831194019 94 180 1.0 7.0 0.00 0.00 0.00 53 1015.6
20260831193517 94 189 0.0 6.0 0.00 0.00 0.00 54 1015.7
20260831193029 94 200 1.0 5.0 0.00 0.00 0.00 52 1015.7
20260831192516 93 184 0.0 5.0 0.00 0.00 0.00 54 1015.7
20260831192020 94 180 2.0 7.0 0.00 0.00 0.00 54 1015.9
20260831191515 94 182 1.0 5.0 0.00 0.00 0.00 55 1016.0
20260831191014 93 184 2.0 5.0 0.00 0.00 0.00 54 1016.0
20260831190515 93 289 1.0 6.0 0.00 0.00 0.00 56 1016.0
20260831190013 93 219 2.0 6.0 0.00 0.00 0.00 52 1016.0
20260831185513 93 159 0.0 6.0 0.00 0.00 0.00 55 1016.1
20260831185011 93 184 2.0 6.0 0.00 0.00 0.00 55 1016.2
20260831184510 93 214 0.0 6.0 0.00 0.00 0.00 52 1016.2
20260831184010 93 213 1.0 6.0 0.00 0.00 0.00 55 1016.3
20260831183511 92 176 2.0 5.0 0.00 0.00 0.00 55 1016.3
20260831183009 92 189 2.0 4.0 0.00 0.00 0.00 52 1016.4
20260831182508 92 182 2.0 6.0 0.00 0.00 0.00 53 1016.4
20260831182008 92 182 2.0 6.0 0.00 0.00 0.00 54 1016.5
20260831181507 92 202 0.0 4.0 0.00 0.00 0.00 56 1016.5
20260831181005 92 279 1.0 5.0 0.00 0.00 0.00 59 1016.6
20260831180507 92 206 2.0 5.0 0.00 0.00 0.00 55 1016.6
20260831180003 91 288 0.0 5.0 0.00 0.00 0.00 58 1016.7
20260831175502 91 293 0.0 7.0 0.00 0.00 0.00 56 1016.7
20260831175002 91 241 3.0 7.0 0.00 0.00 0.00 57 1016.8
20260831174503 91 154 0.0 5.0 0.00 0.00 0.00 57 1016.8
20260831174104 91 153 1.0 6.0 0.00 0.00 0.00 58 1016.9
20260831173600 91 178 3.0 6.0 0.00 0.00 0.00 57 1016.9
20260831173059 91 171 0.0 7.0 0.00 0.00 0.00 59 1016.9
20260831172558 91 200 3.0 7.0 0.00 0.00 0.00 57 1016.9
20260831172100 90 217 1.0 5.0 0.00 0.00 0.00 58 1017.0
20260831171557 90 240 1.0 7.0 0.00 0.00 0.00 57 1017.0
20260831171057 90 220 2.0 7.0 0.00 0.00 0.00 58 1017.1
20260831170557 90 257 2.0 6.0 0.00 0.00 0.00 61 1017.2
20260831165555 90 229 3.0 7.0 0.00 0.00 0.00 60 1017.3
20260831165053 90 178 1.0 6.0 0.00 0.00 0.00 61 1017.4
20260831164600 90 183 2.0 6.0 0.00 0.00 0.00 61 1017.5
20260831164052 90 198 1.0 9.0 0.00 0.00 0.00 62 1017.6
20260831163550 89 228 1.0 9.0 0.00 0.00 0.00 63 1017.5
20260831163049 89 226 3.0 9.0 0.00 0.00 0.00 61 1017.7
20260831162550 89 194 2.0 8.0 0.00 0.00 0.00 63 1017.7
20260831162046 88 228 3.0 10.0 0.00 0.00 0.00 64 1017.7
20260831161546 88 204 3.0 10.0 0.00 0.00 0.00 63 1017.7
20260831161048 88 191 2.0 7.0 0.00 0.00 0.00 63 1017.6
20260831160548 88 194 1.0 7.0 0.00 0.00 0.00 66 1017.6
20260831160047 88 241 2.0 7.0 0.00 0.00 0.00 65 1017.5
20260831155542 88 236 1.0 7.0 0.00 0.00 0.00 67 1017.6
20260831155040 87 223 2.0 7.0 0.00 0.00 0.00 66 1017.6
20260831154539 87 198 3.0 7.0 0.00 0.00 0.00 66 1017.6
20260831154039 87 195 3.0 7.0 0.00 0.00 0.00 67 1017.7
20260831153536 87 163 1.0 6.0 0.00 0.00 0.00 68 1017.7
20260831153036 86 244 2.0 7.0 0.00 0.00 0.00 67 1017.6
20260831152534 86 188 3.0 9.0 0.00 0.00 0.00 69 1017.6
20260831152033 86 203 2.0 7.0 0.00 0.00 0.00 69 1017.6
20260831151532 86 215 2.0 5.0 0.00 0.00 0.00 71 1017.5
20260831151031 85 195 1.0 11.0 0.00 0.00 0.00 72 1017.6
20260831150530 85 180 2.0 11.0 0.00 0.00 0.00 72 1017.6